Regional Weather Roundup
Issued by NWS Wakefield, VA

Home | Current Version | Previous Version | Text Only | Print | Product List | Glossary On
Versions: 1 2 3 4 5 6 7 8 9 10 11 12 13 14 15 16 17 18 19 20 21 22 23 24 25 26 27 28 29 30 31 32 33 34 35 36 37 38 39 40 41 42 43 44 45 46 47 48 49 50
000
ASUS41 KAKQ 020214
RWRAKQ

REGIONAL WEATHER ROUNDUP
NATIONAL WEATHER SERVICE WAKEFIELD VA
1000 PM EDT TUE SEP 01 2015

Note: "fair" indicates few or no clouds below 12,000 feet with no
significant weather and/or obstructions to visibility. * = Denotes
station may not report precipitation (e.g., rain,snow,etc.),
thunder or fog.

VAZ042-051-052>054-056-020300-
NORTHERN VIRGINIA

CITY           SKY/WX    TMP DP  RH WIND       PRES   REMARKS
WASH NATIONAL  MOCLDY    80  74  81 S5        30.05R
DULLES         PTCLDY    76  67  73 CALM      30.05R
FORT BELVOIR   CLEAR     74  71  91 SE1       30.04R
QUANTICO       CLEAR     78  73  84 NW7       30.05R
FREDERICKSBRG* CLEAR     77  70  80 CALM      30.04S HAZE
STAFFORD*      CLEAR     72  70  93 CALM      30.09R FOG
WARRENTON      CLEAR     72  70  94 CALM      30.05S
CULPEPER*      CLEAR     72  69  92 CALM      30.07R
MANASSAS*      CLEAR     73  73 100 CALM      30.05R
LEESBURG*      CLEAR     79  73  83 CALM      30.07R
WINCHESTER     PTCLDY    79  68  69 S5        30.07R
FRONT ROYAL*   FAIR      77  68  73 S3        30.07R
LURAY*         FAIR      73  66  78 CALM      30.10R
$$

VAZ048-049-060>072-079>083-020300-
CENTRAL AND SOUTH CENTRAL VIRGINIA

CITY           SKY/WX    TMP DP  RH WIND       PRES   REMARKS
RICHMOND       PTCLDY    80  69  69 SE3       30.06R
CHESTERFIELD*  FAIR      77  63  61 CALM      30.07R
PETERSBURG*    CLEAR     73  73 100 CALM      30.07R
HANOVER        CLEAR     75  71  87 CALM      30.07R
TAPPAHANNOCK*  CLEAR     75  69  83 CALM      30.06S
QUINTON*       FAIR      75  73  93 CALM      30.05S
CHARLOTTSVILLE PTCLDY    78  71  79 CALM      30.08R
GORDONSVILLE*  FAIR      74  69  86 CALM      30.07R
ORANGE*        PTCLDY    73  72  94 SW3       30.08R
LOUISA*        CLEAR     72  66  83 CALM      30.06S
BUMPASS*       FAIR      76  71  84 CALM      30.06S
FARMVILLE*     PTCLDY    78  67  69 SW3       30.06S
CREWE*         FAIR     N/A N/A N/A CALM      30.07S
FORT PICKETT*  FAIR      75  71  85 CALM      30.07S
CHASE CITY*    FAIR      76  74  93 CALM      30.08S
CLARKSVILLE*   FAIR      72  72 100 CALM      30.07S
SOUTH HILL*    CLEAR     72  71  95 CALM      30.13S
LAWRENCEVILLE* FAIR      72  72 100 CALM      30.07S
EMPORIA*       CLEAR     70  68  94 CALM      30.08S FOG
$$

VAZ088>098-020300-
SOUTHEAST VIRGINIA

CITY           SKY/WX    TMP DP  RH WIND       PRES   REMARKS
NORFOLK        CLEAR     77  71  82 S5        30.06R
VIRGINIA BEACH PTCLDY    78  71  79 CALM      30.05S
NORFOLK NAVAL  PTCLDY    76  71  85 SE5       30.07R
WEST POINT*    CLEAR     77  71  79 CALM      30.07R
SALUDA*        FAIR      75  71  86 SW3       30.05S
NEWPORT NEWS   PTCLDY    74  68  81 CALM      30.06R
LANGLEY AFB    PTCLDY    77  72  84 CALM      30.05R
FORT EUSTIS    PTCLDY    75  75 100 SE2       30.04R
WILLIAMSBURG*  PTCLDY    77  73  88 CALM      30.07R
HR EXEC AP*      N/A     70  64  83 CALM      30.08R
FRANKLIN*      PTCLDY    72  71  96 CALM      30.07R
WAKEFIELD      FAIR      73  69  87 CALM      30.06R
$$

VAZ020-022-025-037-045-020300-
WEST CENTRAL AND SOUTHWEST VIRGINIA

CITY           SKY/WX    TMP DP  RH WIND       PRES   REMARKS
STAUNTON*      CLOUDY    78  67  67 CALM      30.13S
WAYNESBORO*    MOCLDY    76  69  79 S3        30.14R
HOT SPRINGS VA CLOUDY    70  60  70 W6        30.27S
LYNCHBURG      CLOUDY    73  67  81 CALM      30.12R
DANVILLE       CLEAR     73  68  84 CALM      30.09R
SOUTH BOSTON*  FAIR      74  70  86 CALM      30.08R
MARTINSVILLE   PTCLDY    72  72 100 CALM      30.13S
ROANOKE        MOCLDY    79  67  66 NE5       30.14R
BLACKSBURG     CLEAR     70  68  94 CALM      30.22R
DUBLIN*        CLOUDY    72  67  84 SW3       30.20S
MARION*        CLEAR     68  66  93 CALM      30.24R
HILLSVILLE*    CLOUDY    71  66  84 CALM      30.21S
RICHLANDS*     CLOUDY    74  34  23 CALM      30.23R
WISE*          MOCLDY    72  61  68 CALM      30.23S
ABINGDON*      CLEAR     72  66  81 CALM      30.18S
$$

MDZ021>025-VAZ099-100-020300-
SOUTHERN MARYLAND AND THE DELMARVA PENINSULA

CITY           SKY/WX    TMP DP  RH WIND       PRES   REMARKS
PATUXENT RIVER PTCLDY    77  69  76 SW3       30.04R
BAY BRIDGE APT   N/A     79  68  69 CALM      30.04S
LEONARDTOWN    NOT AVBL
DOVER          PTCLDY    78  73  85 S7        30.02S
GEORGETOWN     PTCLDY    73  71  93 SW3       30.05R
EASTON         NOT AVBL
CAMBRIDGE      PTCLDY    77  70  78 CALM      30.04S
SALISBURY      CLEAR     74  73  97 CALM      30.05R
OCEAN CITY     PTCLDY    74  70  87 CALM      30.05R
WALLOPS ISLAND MOCLDY    77  72  84 SW5       30.05S
ACCOMACK*      CLEAR     70  70 100 CALM      30.05S
$$

NCZ012>017-030>032-020300-
NORTH CENTRAL AND EASTERN NORTH CAROLINA

CITY           SKY/WX    TMP DP  RH WIND       PRES   REMARKS
ROANOKE RAPIDS FAIR      72  70  94 CALM      30.07S
RALEIGH        PTCLDY    76  69  79 CALM      30.08S
ELIZABETH CITY PTCLDY    75  73  93 S5        30.06R
AHOSKIE*       CLEAR     71  71  97 CALM      30.07S
EDENTON*       PTCLDY    73  70  91 CALM      30.06S
CURRITUCK*     PTCLDY    75  72  89 CALM      30.07R
KILL DEVIL HLS PTCLDY    75  69  81 CALM      30.06S
MANTEO         PTCLDY    74  73  95 CALM      30.07S
CAPE HATTERAS  PTCLDY    75  73  93 CALM      30.07R
TARBORO*       FAIR      73  71  95 CALM      30.07S
GOLDSBORO      CLEAR     77  71  83 CALM      30.05S
WASHINGTON     CLEAR     74  72  92 CALM      30.06S
GREENVILLE     CLEAR     73  73 100 CALM      30.08S
NEW BERN       CLEAR     74  72  93 CALM      30.08R
WILMINGTON     CLEAR     76  73  91 S3        30.07S
$$

VAZ048-020300-
ELSEWHERE

CITY           SKY/WX    TMP DP  RH WIND       PRES   REMARKS
HARRISBURG PA  PTCLDY    75  67  76 CALM      30.04S
BALTIMORE      PTCLDY    76  70  82 CALM      30.04R
ANNAPOLIS      PTCLDY    78  75  90 CALM      30.04R
ANDREWS AFB    CLEAR     76  70  80 CALM      30.04S
PHILADELPHIA   CLEAR     79  70  74 E5        30.06R
HENDERSON NC   CLEAR     75  67  76 CALM      30.09R
GREENSBORO     PTCLDY    80  65  59 CALM      30.10R
ROCKY MOUNT    CLEAR     74  71  91 CALM      30.07R
$$

VAZ100-020300-
MARINE

STATION/POSITION TIME  TEMP    WIND        PRES    WAVE   SWELL
                       AIR SEA DIR/SP/G            HT/PER HT/PER
                 (UTC) (F)     (DEG/KT/KT) (MB)    (FT/S) (FT/S)
BRANDYWINE LGT   0100   77 77  160/  6/  6 1017.3R
CAPE MAY NJ      0100   76 81   80/  4/  5 1016.8R
LEWES DE         0100   78 76  220/  4/  6 1016.8R
15NM E FENWICK I 0150   79 79  210/ 10/ 10 1017.4R   2/ 8   2/ 8
OCEAN-CITY-INLET 0100   78 79  250/  5/  6 1016.4R
GOOSES REEF MD   0200   81 80  190/  6/  8 1018.2R
COVE POINT MD    0100   81     200/  5/  6 1017.8R
SOLOMONS ISLAND  0100      81                N/A
BISHOPS HEAD MD  0100   80 81  200/  6/  8 1016.4R
PINEY POINT MD   0117          210/  5/  6   N/A
POTOMAC MD       0200   81 81  220/  8/ 10 1016.3R   0
CAMBRIDGE MD     0100   80 81  200/  3/  5 1016.3R
LEWISETTA VA     0100   81 81  210/  6/  7 1016.8R
RAPPAHANNOCK LGT 0100          170/  6/  6 1018.0R
STINGRAY PT      0200   81 81  190/  6/  6 1018.0R   0
YORK RVR RNG VA  0100   80      CALM  /  5 1017.0R
YORKTOWN VA      0100   79 81  170/  2/  3 1017.1R
JAMESTOWN VA     0200   78 81   60/  2/  4   N/A
DOMINION TERM VA 0100   81     110/  5/  5 1017.4R
KIPTOPEKE VA     0100      80  150/  5/  5   N/A
CHES BAY BRIDGE  0100   78 79  130/  6/  7 1017.2R
CAPE HENRY VA    0100   76     170/  5/  5   N/A
CHESAPEAKE LGHT  0100   77     190/  4/  5 1018.4R
WILLOUBY STN VA  0100   80      60/  1/  3 1018.5R
CAPE HENRY BUOY  0128      81                N/A     2/ 9
1ST LANDING BUOY 0200      79              1017.5R   1/ 4
CAPE CHARLES BUO 0126      81                N/A     2/ 8   2/ 8
OFFSHORE WE BUOY 0111      80                N/A     2/ 8   2/ 8
64NM E OF VA BCH 0150   78 79   70/  2/  2 1017.5R   2/ 8   2/ 8
DUCK PIER NC     0100   78 78  140/  3/  3 1016.9R
44100 DUCK FRF   0124      79                N/A     2/10
44056 DUCK FRF   0111      81                N/A     1/ 9
OREGON INLET NC  0100   78 82     CALM     1017.8R
HATTERAS NC      0100   80 82   CALM  /  1 1017.9R
DIAMOND SHLS NC  0150   80 84  310/  4/  6 1018.2R   2/ 9   2/ 9
CAPE LOOKOUT NC  0200   79     260/  7/  8 1017.9R
$$



USA.gov is the U.S. government's official web portal to all federal, state and local government web resources and services.